Location: Newark
(39.8500°N, 99.5772°W)
Time: 08:33:55
(UTC+00:00)

OTV 5 (USA 277) - Pass Details

Date: 27 August 2019
Orbit: 295 x 339 km, 54.5° (Epoch: 08 September)

Event Time Altitude Azimuth Distance (km) Brightness Sun altitude
Rises 01:56:33 0° 237° (WSW) 2,006 ? -7.7°
Reaches altitude 10° 01:58:32 10° 243° (WSW) 1,177 ? -8.1°
Maximum altitude 02:01:04 49° 320° (NW) 399 ? -8.5°
Drops below altitude 10° 02:03:35 10° 38° (NE) 1,169 ? -9.0°
Sets 02:05:33 0° 44° (NE) 1,990 ? -9.3°
